Location: Palmerston North
(40.3500°S, 175.6170°E)
Time: 09:44:41
(UTC+13:00)

SeaSat 1 - Pass Details

Date: 24 January 2019
Orbit: 744 x 748 km, 108.0° (Epoch: 19 February)

Event Time Altitude Azimuth Distance (km) Brightness Sun altitude
Rises 23:36:33 0° 154° (SSE) 3,221 6.2 -24.9°
Reaches altitude 10° 23:38:50 10° 153° (SSE) 2,290 5.4 -25.1°
Maximum altitude 23:43:50 84° 64° (ENE) 762 2.3 -25.5°
Enters shadow 23:43:59 82° 21° (NNE) 765 2.3 -25.6°
